Tracking 30995 objects as of 7-Jul-2025
HD Live streaming from Space Station
objects crossing your sky now

SL-14 DEB

Track SL-14 DEB now!
10-day predictions


NORAD ID: 45293
Int'l Code: 1991-056AF
Perigee: 714.8 km
Apogee: 944.3 km
Inclination: 82.5 °
Period: 101.3 minutes
Semi major axis: 7200 km
RCS: Unknown
Launch date: August 15, 1991
Source: Commonwealth of Independent States (former USSR) (CIS)
Launch site: PLESETSK MISSILE AND SPACE COMPLEX (PKMTR)

Note: This is SATELLITE DEBRIS
Your satellite tracking list
Your tracking list is empty




NASA's NSSDC Master Catalog

Two Line Element Set (TLE):
1 45293U 91056AF  25187.41971563  .00019783  00000-0  80269-2 0  9998
2 45293  82.5258 237.9422 0159356  80.2323 281.6811 14.20866226269721
Source of the keplerian elements: AFSPC